Miscellaneous Local Product
Issued by NWS Hastings, NE

Home | Current Version | Previous Version | Graphics & Text | Print | Product List | Glossary On
Versions: 1 2 3 4 5 6 7 8 9 10 11 12 13 14 15 16 17 18 19 20 21 22 23 24 25 26 27 28 29 30 31 32 33 34 35 36 37 38 39 40 41 42 43 44 45 46 47 48 49 50
000
AXUS43 KGID 260002
MISGRI

GID CWA HOURLY WEATHER ROUNDUP
NATIONAL WEATHER SERVICE HASTINGS NE
600 PM CST SUN JAN 25 2015

NOTE: "FAIR" INDICATES FEW OR NO CLOUDS BELOW 12,000 FEET WITH NO
SIGNIFICANT WEATHER AND/OR OBSTRUCTIONS TO VISIBILITY.

...SOUTH CENTRAL NEBRASKA...

CITY           SKY/WX    TMP DP  RH WIND       PRES   REMARKS
GRAND ISLAND   MOCLDY    37  27  67 NW8       30.09R WCI  31
HASTINGS       PTCLDY    35  25  66 N6        30.08S WCI  30
KEARNEY        CLEAR     37  27  65 N5        30.08S WCI  34
ORD            PTCLDY    32  25  75 CALM      30.05F
YORK           MOCLDY    37  32  81 NW8       30.08R WCI  31
AURORA         CLOUDY    38  29  71 NW7       30.08S WCI  33
LEXINGTON      PTCLDY    39  28  66 E6        30.06S WCI  35
HOLDREGE       CLEAR     38  24  57 N6        30.08R WCI  34
HEBRON         MOCLDY    41  30  66 N6        30.10R

...NEBRASKA PANHANDLE...

CITY           SKY/WX    TMP DP  RH WIND       PRES   REMARKS
CHADRON        MOCLDY    46  33  60 W3        30.01R
ALLIANCE       CLOUDY    43  34  70 W7        30.03S
SCOTTSBLUFF    CLEAR     47  34  60 W9        30.06R
SIDNEY         CLEAR     46  30  53 W10       30.09R

...WESTERN AND NORTH CENTRAL NEBRASKA...

CITY           SKY/WX    TMP DP  RH WIND       PRES   REMARKS
VALENTINE      CLOUDY    35  26  69 SW3       29.99F
AINSWORTH      CLEAR     34  28  77 S5        30.01F WCI  30
ONEILL         CLOUDY    39  33  80 CALM      30.04F
BROKEN BOW     PTCLDY    36  27  69 CALM      30.04F
IMPERIAL       PTCLDY    47  31  53 NW6       30.07S
NORTH PLATTE   CLEAR     42  21  43 N5        30.05S
MCCOOK         PTCLDY    47  16  29 CALM      30.07R

...EASTERN NEBRASKA...

CITY           SKY/WX    TMP DP  RH WIND       PRES   REMARKS
NORFOLK        CLOUDY    37  32  82 CALM      30.05F
SO SIOUX CITY  CLOUDY    37  33  85 NW6       30.06F WCI  32
TEKAMAH        CLOUDY    37  33  85 W10       30.07S WCI  30
COLUMBUS       CLOUDY    37  28  70 N9        30.09R WCI  31
ALBION         CLOUDY    38  32  79 CALM      30.07S
OMAHA EPPLEY   CLOUDY    38  32  79 NW6       30.08R WCI  33
OFFUTT AFB     CLOUDY    39  29  68 N6        30.07S WCI  35
MILLARD        CLOUDY    40  32  74 CALM      30.07S
LINCOLN        CLOUDY    37  30  75 N5        30.10S WCI  33
NEBRASKA CITY  CLOUDY    39  25  57 N9        30.08R WCI  32
BEATRICE       CLOUDY    37  31  79 N3        30.08S
FALLS CITY     CLOUDY    38  30  73 N5        30.08R WCI  34

...NORTHERN KANSAS...

CITY           SKY/WX    TMP DP  RH WIND       PRES   REMARKS
GOODLAND       CLEAR     46  31  55 N8        30.11R
HILL CITY      CLEAR     42  22  44 N5        30.09F
NORTON         CLEAR     45  19  36 CALM      30.08R
PHILLIPSBURG   CLEAR     45  27  49 N6        30.10S
SMITH CENTER   CLEAR     39  25  56 N7        30.11R WCI  34
BELOIT         CLEAR     37  27  65 N7        30.10S WCI  32
HAYS           CLEAR     45  21  39 N6        30.10F
RUSSELL        CLEAR     41  25  53 N9        30.09R
CONCORDIA      CLOUDY    41  31  67 N8        30.10R
SALINA         PTCLDY    44  30  57 N13       30.11R
TOPEKA         CLOUDY    40  31  70 N8        30.10R WCI  34



USA.gov is the U.S. government's official web portal to all federal, state and local government web resources and services.